QPF
0.00 0.00 0.00 0.00 0.00 0.00 0.00 0.00 0.00 0.00 0.00 0.00 0.00 0.00 0.00 0.00 0.00 0.00 0.00 0.00 0.00 0.00 0.00 0.00 0.00 0.00 0.00 0.00 0.00 0.00 0.00 0.00 0.00 0.00 0.00 0.00 0.00 0.00 0.00 0.00 0.00 0.00 0.00
0.00 0.00 0.00 0.00 0.00 0.00 0.00 0.00 0.00 0.00 0.00 0.00 0.00 0.00 0.00 0.00 0.00 0.00 0.00 0.00 0.00 0.00 0.00 0.00 0.00 0.00 0.00 0.00 0.00 0.00 0.00 0.00 0.00 0.00 0.00 0.00 0.00 0.00 0.00 0.00 0.00 0.00 0.00
0.00 0.00 0.00 0.00 0.00 0.00 0.00 0.00 0.00 0.00 0.00 0.00 0.00 0.00 0.00 0.00 0.00 0.00 0.00 0.00 0.00 0.00 0.00 0.00 0.00 0.00 0.00 0.00 0.00 0.00 0.00 0.00 0.00 0.00 0.00 0.00 0.00 0.00 0.00 0.00 0.00 0.00 0.00
0.00 0.00 0.00 0.00 0.00 0.00 0.00 0.00 0.00 0.00 0.00 0.00 0.00 0.00 0.00 0.00 0.00 0.00 0.00 0.00 0.00 0.00 0.00 0.00 0.00 0.00 0.00 0.00 0.00 0.00 0.00 0.00 0.01 0.01 0.01 0.01 0.01 0.00 0.01 0.01 0.00 0.00 0.00
0.00 0.00 0.00 0.00 0.00 0.00 0.00 0.00 0.00 0.00 0.00 0.00 0.00 0.00 0.00 0.00 0.00 0.00 0.00 0.00 0.00 0.00 0.00 0.00 0.00 0.00 0.00 0.00 0.00 0.01 0.01 0.01 0.02 0.02 0.02 0.02 0.01 0.01 0.01 0.01 0.01 0.01 0.00
0.00 0.00 0.00 0.00 0.00 0.00 0.00 0.00 0.00 0.00 0.00 0.00 0.00 0.00 0.00 0.00 0.00 0.00 0.00 0.00 0.00 0.00 0.00 0.00 0.00 0.00 0.00 0.00 0.00 0.01 0.01 0.01 0.02 0.02 0.03 0.03 0.02 0.02 0.02 0.02 0.02 0.02 0.01
0.00 0.00 0.00 0.00 0.00 0.00 0.00 0.00 0.00 0.00 0.00 0.00 0.00 0.00 0.00 0.00 0.00 0.00 0.00 0.00 0.00 0.00 0.00 0.00 0.00 0.00 0.00 0.00 0.00 0.00 0.00 0.01 0.01 0.02 0.03 0.03 0.02 0.01 0.02 0.02 0.03 0.04 0.03
0.00 0.00 0.00 0.00 0.00 0.00 0.00 0.00 0.00 0.00 0.00 0.00 0.00 0.00 0.00 0.00 0.00 0.00 0.00 0.00 0.00 0.00 0.00 0.00 0.00 0.00 0.00 0.00 0.00 0.00 0.00 0.00 0.01 0.01 0.01 0.01 0.01 0.02 0.03 0.06 0.07 0.06 0.04
0.00 0.00 0.00 0.00 0.00 0.00 0.00 0.00 0.00 0.00 0.00 0.00 0.00 0.00 0.00 0.00 0.00 0.00 0.00 0.00 0.00 0.00 0.00 0.00 0.00 0.00 0.00 0.01 0.01 0.02 0.01 0.01 0.01 0.01 0.02 0.03 0.04 0.04 0.05 0.06 0.07 0.06 0.03
0.00 0.00 0.00 0.00 0.00 0.00 0.00 0.00 0.00 0.00 0.00 0.00 0.00 0.00 0.00 0.00 0.00 0.00 0.00 0.00 0.00 0.00 0.00 0.00 0.00 0.00 0.01 0.02 0.02 0.02 0.03 0.02 0.02 0.02 0.02 0.02 0.02 0.01 0.01 0.02 0.03 0.03 0.03
0.00 0.00 0.00 0.00 0.00 0.00 0.00 0.00 0.00 0.00 0.00 0.00 0.00 0.00 0.00 0.00 0.00 0.00 0.00 0.00 0.00 0.00 0.00 0.00 0.00 0.01 0.01 0.02 0.03 0.03 0.04 0.04 0.04 0.05 0.04 0.03 0.02 0.01 0.01 0.01 0.01 0.02 0.02
0.00 0.00 0.00 0.00 0.00 0.00 0.00 0.00 0.00 0.00 0.00 0.00 0.00 0.00 0.00 0.00 0.00 0.00 0.00 0.00 0.01 0.01 0.01 0.00 0.00 0.01 0.02 0.03 0.03 0.03 0.03 0.03 0.03 0.03 0.02 0.01 0.01 0.01 0.01 0.00 0.00 0.00 0.01
0.00 0.00 0.00 0.00 0.00 0.00 0.00 0.00 0.00 0.00 0.00 0.00 0.00 0.00 0.00 0.00 0.00 0.00 0.00 0.00 0.01 0.01 0.01 0.01 0.01 0.02 0.02 0.02 0.01 0.01 0.02 0.01 0.01 0.01 0.01 0.01 0.01 0.01 0.01 0.01 0.00 0.00 0.00
0.00 0.00 0.00 0.00 0.00 0.00 0.00 0.00 0.00 0.00 0.00 0.00 0.00 0.00 0.00 0.00 0.00 0.00 0.00 0.01 0.01 0.01 0.01 0.01 0.02 0.01 0.01 0.01 0.01 0.01 0.01 0.01 0.01 0.02 0.01 0.01 0.01 0.01 0.01 0.01 0.01 0.01 0.01
0.00 0.00 0.00 0.00 0.00 0.00 0.00 0.00 0.00 0.00 0.00 0.00 0.00 0.00 0.00 0.00 0.00 0.01 0.01 0.01 0.01 0.02 0.03 0.04 0.03 0.02 0.01 0.01 0.01 0.01 0.01 0.01 0.01 0.01 0.01 0.01 0.01 0.01 0.01 0.01 0.01 0.01 0.01
0.00 0.00 0.00 0.00 0.00 0.00 0.00 0.00 0.00 0.00 0.00 0.00 0.00 0.00 0.00 0.00 0.00 0.01 0.01 0.01 0.01 0.02 0.03 0.03 0.02 0.01 0.01 0.01 0.01 0.01 0.01 0.01 0.01 0.01 0.01 0.01 0.01 0.01 0.01 0.01 0.01 0.01 0.01
0.00 0.00 0.00 0.00 0.00 0.00 0.00 0.00 0.00 0.00 0.00 0.00 0.00 0.00 0.00 0.00 0.00 0.01 0.01 0.01 0.01 0.02 0.02 0.01 0.01 0.01 0.01 0.01 0.01 0.01 0.01 0.01 0.01 0.01 0.01 0.01 0.01 0.02 0.02 0.01 0.01 0.01 0.01
0.00 0.00 0.00 0.00 0.00 0.00 0.00 0.00 0.00 0.00 0.00 0.00 0.00 0.00 0.00 0.00 0.00 0.01 0.01 0.01 0.01 0.00 0.00 0.00 0.01 0.01 0.01 0.01 0.01 0.01 0.01 0.01 0.01 0.01 0.01 0.01 0.02 0.02 0.02 0.01 0.01 0.01 0.01
0.00 0.00 0.00 0.00 0.00 0.00 0.00 0.00 0.00 0.00 0.00 0.00 0.00 0.00 0.00 0.00 0.00 0.00 0.00 0.00 0.00 0.01 0.00 0.01 0.01 0.01 0.01 0.01 0.01 0.01 0.01 0.01 0.01 0.01 0.01 0.01 0.02 0.02 0.02 0.01 0.01 0.01 0.01
0.00 0.00 0.00 0.00 0.00 0.00 0.00 0.00 0.00 0.00 0.00 0.00 0.00 0.00 0.00 0.00 0.00 0.00 0.00 0.00 0.01 0.01 0.01 0.01 0.01 0.01 0.01 0.01 0.01 0.01 0.01 0.01 0.01 0.01 0.01 0.01 0.01 0.02 0.02 0.01 0.01 0.01 0.01
0.00 0.00 0.00 0.00 0.00 0.00 0.00 0.00 0.00 0.00 0.00 0.00 0.00 0.00 0.00 0.01 0.01 0.01 0.01 0.01 0.01 0.01 0.01 0.01 0.01 0.01 0.01 0.01 0.01 0.01 0.01 0.01 0.01 0.01 0.01 0.01 0.02 0.02 0.01 0.01 0.01 0.01 0.01
0.00 0.00 0.00 0.00 0.00 0.00 0.00 0.00 0.00 0.00 0.00 0.00 0.00 0.00 0.00 0.00 0.00 0.00 0.00 0.00 0.00 0.01 0.01 0.01 0.01 0.01 0.01 0.01 0.01 0.01 0.01 0.01 0.01 0.01 0.01 0.01 0.02 0.02 0.02 0.01 0.01 0.01 0.01
0.00 0.00 0.00 0.00 0.00 0.00 0.00 0.00 0.00 0.00 0.00 0.00 0.00 0.00 0.00 0.00 0.00 0.00 0.00 0.00 0.00 0.01 0.01 0.01 0.01 0.01 0.01 0.01 0.01 0.01 0.01 0.01 0.01 0.01 0.02 0.02 0.02 0.01 0.01 0.01 0.01 0.01 0.01
0.00 0.00 0.00 0.00 0.00 0.00 0.00 0.00 0.00 0.00 0.00 0.00 0.00 0.00 0.00 0.00 0.00 0.00 0.00 0.00 0.00 0.00 0.00 0.01 0.01 0.01 0.01 0.01 0.01 0.01 0.01 0.01 0.01 0.02 0.02 0.02 0.02 0.01 0.02 0.02 0.01 0.01 0.01
0.00 0.00 0.00 0.00 0.00 0.00 0.00 0.00 0.00 0.00 0.00 0.00 0.00 0.00 0.00 0.00 0.00 0.00 0.00 0.00 0.00 0.00 0.00 0.00 0.01 0.01 0.00 0.00 0.01 0.01 0.01 0.01 0.02 0.02 0.03 0.03 0.02 0.02 0.02 0.02 0.01 0.01 0.01
0.00 0.00 0.00 0.00 0.00 0.00 0.00 0.00 0.00 0.00 0.00 0.00 0.00 0.00 0.00 0.00 0.00 0.00 0.00 0.00 0.00 0.00 0.00 0.00 0.00 0.00 0.00 0.00 0.00 0.01 0.01 0.01 0.02 0.02 0.04 0.05 0.03 0.02 0.02 0.02 0.01 0.01 0.01
MSLP
1014.15 1014.74 1015.37 1016.02 1016.67 1017.31 1017.93 1018.53 1019.09 1019.62 1020.10 1020.55 1020.94 1021.29 1021.58 1021.82 1022.00 1022.13 1022.22 1022.28 1022.32 1022.34 1022.35 1022.35 1022.34 1022.29 1022.20 1022.05 1021.82 1021.52 1021.14 1020.69 1020.18 1019.64 1019.08 1018.54 1018.03 1017.56 1017.14 1016.77 1016.43 1016.10 1015.78
1013.87 1014.49 1015.13 1015.78 1016.43 1017.08 1017.71 1018.31 1018.89 1019.43 1019.93 1020.39 1020.80 1021.15 1021.44 1021.66 1021.82 1021.92 1021.98 1022.00 1021.99 1021.98 1021.95 1021.92 1021.89 1021.83 1021.75 1021.61 1021.42 1021.15 1020.81 1020.39 1019.91 1019.38 1018.82 1018.26 1017.72 1017.20 1016.73 1016.30 1015.90 1015.54 1015.17
1013.50 1014.14 1014.79 1015.45 1016.11 1016.76 1017.39 1018.01 1018.60 1019.16 1019.69 1020.16 1020.58 1020.94 1021.23 1021.44 1021.58 1021.66 1021.68 1021.66 1021.61 1021.54 1021.48 1021.42 1021.35 1021.28 1021.19 1021.07 1020.90 1020.66 1020.36 1019.98 1019.53 1019.02 1018.47 1017.90 1017.34 1016.79 1016.28 1015.80 1015.37 1014.96 1014.56
1013.00 1013.67 1014.34 1015.01 1015.68 1016.33 1016.97 1017.60 1018.21 1018.79 1019.34 1019.83 1020.27 1020.64 1020.92 1021.13 1021.25 1021.30 1021.29 1021.23 1021.14 1021.04 1020.94 1020.84 1020.75 1020.66 1020.57 1020.45 1020.29 1020.08 1019.81 1019.46 1019.04 1018.55 1018.02 1017.46 1016.89 1016.33 1015.79 1015.29 1014.82 1014.39 1013.97
1012.41 1013.11 1013.79 1014.47 1015.14 1015.80 1016.45 1017.09 1017.72 1018.32 1018.88 1019.39 1019.84 1020.21 1020.50 1020.70 1020.81 1020.84 1020.80 1020.71 1020.59 1020.46 1020.32 1020.20 1020.09 1019.98 1019.88 1019.77 1019.62 1019.42 1019.17 1018.85 1018.45 1017.99 1017.48 1016.93 1016.37 1015.81 1015.28 1014.77 1014.30 1013.86 1013.44
1011.76 1012.48 1013.18 1013.86 1014.54 1015.20 1015.86 1016.51 1017.15 1017.76 1018.33 1018.86 1019.31 1019.68 1019.96 1020.14 1020.24 1020.25 1020.20 1020.09 1019.95 1019.79 1019.64 1019.50 1019.37 1019.26 1019.15 1019.03 1018.89 1018.70 1018.47 1018.16 1017.79 1017.36 1016.87 1016.34 1015.80 1015.26 1014.75 1014.26 1013.81 1013.38 1012.97
1011.12 1011.84 1012.55 1013.24 1013.92 1014.59 1015.25 1015.90 1016.54 1017.16 1017.73 1018.25 1018.69 1019.05 1019.31 1019.48 1019.56 1019.56 1019.49 1019.37 1019.22 1019.06 1018.89 1018.74 1018.61 1018.49 1018.38 1018.26 1018.12 1017.94 1017.71 1017.42 1017.07 1016.66 1016.20 1015.71 1015.20 1014.70 1014.22 1013.76 1013.35 1012.96 1012.58
1010.54 1011.26 1011.96 1012.65 1013.33 1014.00 1014.66 1015.32 1015.95 1016.55 1017.11 1017.60 1018.02 1018.35 1018.59 1018.74 1018.80 1018.78 1018.70 1018.58 1018.42 1018.26 1018.10 1017.94 1017.81 1017.68 1017.57 1017.45 1017.31 1017.13 1016.92 1016.65 1016.32 1015.94 1015.51 1015.06 1014.59 1014.13 1013.70 1013.29 1012.92 1012.58 1012.25
1010.07 1010.77 1011.46 1012.14 1012.82 1013.49 1014.14 1014.78 1015.40 1015.98 1016.50 1016.96 1017.34 1017.64 1017.84 1017.96 1017.99 1017.96 1017.87 1017.74 1017.59 1017.42 1017.26 1017.11 1016.97 1016.85 1016.73 1016.61 1016.47 1016.30 1016.10 1015.85 1015.55 1015.20 1014.82 1014.40 1013.98 1013.57 1013.18 1012.83 1012.51 1012.22 1011.95
1009.72 1010.39 1011.06 1011.73 1012.40 1013.06 1013.70 1014.32 1014.91 1015.45 1015.93 1016.34 1016.67 1016.92 1017.09 1017.18 1017.19 1017.14 1017.04 1016.91 1016.75 1016.59 1016.42 1016.27 1016.12 1015.99 1015.86 1015.74 1015.61 1015.45 1015.26 1015.04 1014.77 1014.47 1014.12 1013.76 1013.38 1013.02 1012.68 1012.37 1012.10 1011.86 1011.64
1009.47 1010.11 1010.76 1011.41 1012.06 1012.70 1013.33 1013.92 1014.47 1014.96 1015.39 1015.75 1016.03 1016.23 1016.35 1016.41 1016.40 1016.34 1016.23 1016.09 1015.93 1015.76 1015.59 1015.42 1015.27 1015.12 1014.99 1014.86 1014.73 1014.58 1014.42 1014.23 1014.00 1013.74 1013.44 1013.12 1012.79 1012.47 1012.17 1011.90 1011.66 1011.46 1011.28
1009.31 1009.91 1010.53 1011.16 1011.79 1012.41 1013.01 1013.56 1014.06 1014.50 1014.87 1015.17 1015.40 1015.55 1015.64 1015.67 1015.64 1015.57 1015.46 1015.31 1015.14 1014.96 1014.77 1014.59 1014.41 1014.24 1014.10 1013.96 1013.83 1013.71 1013.57 1013.42 1013.23 1013.02 1012.77 1012.49 1012.20 1011.91 1011.63 1011.38 1011.17 1011.00 1010.85
1009.19 1009.76 1010.35 1010.96 1011.57 1012.16 1012.71 1013.22 1013.66 1014.04 1014.35 1014.59 1014.76 1014.88 1014.93 1014.94 1014.90 1014.82 1014.70 1014.56 1014.38 1014.18 1013.97 1013.76 1013.56 1013.37 1013.20 1013.06 1012.94 1012.83 1012.72 1012.61 1012.47 1012.31 1012.10 1011.87 1011.61 1011.34 1011.07 1010.83 1010.63 1010.47 1010.35
1009.10 1009.64 1010.21 1010.79 1011.36 1011.91 1012.42 1012.87 1013.25 1013.56 1013.80 1013.98 1014.11 1014.18 1014.21 1014.20 1014.16 1014.08 1013.96 1013.81 1013.62 1013.41 1013.18 1012.94 1012.70 1012.49 1012.30 1012.15 1012.04 1011.95 1011.88 1011.81 1011.72 1011.60 1011.44 1011.24 1011.01 1010.75 1010.49 1010.25 1010.05 1009.89 1009.79
1009.02 1009.54 1010.08 1010.63 1011.17 1011.67 1012.12 1012.50 1012.80 1013.04 1013.21 1013.33 1013.40 1013.44 1013.45 1013.43 1013.38 1013.31 1013.19 1013.04 1012.85 1012.62 1012.37 1012.10 1011.85 1011.61 1011.41 1011.26 1011.15 1011.09 1011.05 1011.02 1010.98 1010.91 1010.79 1010.62 1010.41 1010.16 1009.90 1009.66 1009.45 1009.29 1009.20
1008.96 1009.46 1009.98 1010.50 1010.99 1011.42 1011.80 1012.10 1012.32 1012.48 1012.58 1012.63 1012.65 1012.64 1012.63 1012.60 1012.55 1012.48 1012.37 1012.22 1012.03 1011.80 1011.53 1011.25 1010.97 1010.72 1010.52 1010.37 1010.28 1010.25 1010.25 1010.26 1010.27 1010.24 1010.16 1010.02 1009.82 1009.58 1009.32 1009.07 1008.86 1008.70 1008.61
1008.94 1009.42 1009.91 1010.38 1010.81 1011.18 1011.47 1011.68 1011.81 1011.88 1011.90 1011.88 1011.84 1011.79 1011.75 1011.71 1011.66 1011.59 1011.49 1011.34 1011.15 1010.91 1010.65 1010.36 1010.08 1009.83 1009.63 1009.50 1009.43 1009.43 1009.47 1009.52 1009.57 1009.58 1009.54 1009.42 1009.24 1009.02 1008.76 1008.51 1008.30 1008.14 1008.07
1008.96 1009.41 1009.86 1010.27 1010.63 1010.92 1011.12 1011.24 1011.28 1011.26 1011.19 1011.10 1011.00 1010.91 1010.83 1010.77 1010.70 1010.63 1010.53 1010.39 1010.20 1009.97 1009.71 1009.43 1009.17 1008.93 1008.75 1008.64 1008.60 1008.63 1008.71 1008.80 1008.89 1008.94 1008.92 1008.84 1008.68 1008.47 1008.22 1007.98 1007.78 1007.64 1007.58
1009.02 1009.43 1009.82 1010.16 1010.45 1010.65 1010.76 1010.79 1010.74 1010.63 1010.47 1010.31 1010.15 1010.01 1009.89 1009.79 1009.71 1009.63 1009.52 1009.38 1009.20 1008.98 1008.74 1008.48 1008.23 1008.02 1007.87 1007.79 1007.78 1007.85 1007.96 1008.09 1008.21 1008.29 1008.30 1008.25 1008.11 1007.93 1007.71 1007.49 1007.30 1007.18 1007.15
1009.10 1009.45 1009.77 1010.05 1010.25 1010.36 1010.39 1010.33 1010.19 1010.00 1009.77 1009.54 1009.32 1009.12 1008.96 1008.83 1008.72 1008.61 1008.49 1008.35 1008.18 1007.97 1007.74 1007.50 1007.28 1007.10 1006.99 1006.94 1006.97 1007.07 1007.21 1007.37 1007.52 1007.62 1007.67 1007.64 1007.53 1007.37 1007.19 1007.00 1006.85 1006.76 1006.77
1009.19 1009.46 1009.70 1009.90 1010.01 1010.05 1009.99 1009.86 1009.65 1009.39 1009.10 1008.81 1008.53 1008.29 1008.08 1007.91 1007.76 1007.62 1007.49 1007.33 1007.15 1006.95 1006.74 1006.53 1006.34 1006.20 1006.11 1006.10 1006.16 1006.29 1006.45 1006.63 1006.80 1006.93 1007.00 1006.99 1006.92 1006.80 1006.65 1006.50 1006.40 1006.35 1006.40
1009.25 1009.44 1009.59 1009.70 1009.74 1009.70 1009.58 1009.38 1009.12 1008.81 1008.47 1008.14 1007.82 1007.53 1007.28 1007.06 1006.88 1006.71 1006.54 1006.37 1006.18 1005.99 1005.78 1005.59 1005.43 1005.32 1005.26 1005.28 1005.36 1005.51 1005.69 1005.88 1006.06 1006.21 1006.30 1006.32 1006.28 1006.19 1006.08 1005.98 1005.92 1005.93 1006.01
1009.25 1009.35 1009.43 1009.46 1009.43 1009.33 1009.15 1008.91 1008.61 1008.27 1007.91 1007.54 1007.19 1006.87 1006.58 1006.33 1006.10 1005.90 1005.70 1005.50 1005.30 1005.10 1004.90 1004.72 1004.58 1004.49 1004.45 1004.49 1004.59 1004.74 1004.93 1005.13 1005.32 1005.47 1005.57 1005.62 1005.60 1005.55 1005.49 1005.44 1005.42 1005.47 1005.59
1009.20 1009.22 1009.22 1009.18 1009.09 1008.94 1008.73 1008.46 1008.14 1007.78 1007.41 1007.03 1006.66 1006.31 1006.00 1005.71 1005.45 1005.21 1004.98 1004.75 1004.53 1004.32 1004.12 1003.94 1003.81 1003.73 1003.70 1003.75 1003.85 1004.01 1004.19 1004.39 1004.58 1004.73 1004.85 1004.90 1004.92 1004.90 1004.88 1004.86 1004.89 1004.97 1005.13
1009.10 1009.05 1008.98 1008.88 1008.75 1008.56 1008.32 1008.04 1007.71 1007.35 1006.97 1006.58 1006.20 1005.85 1005.51 1005.19 1004.90 1004.63 1004.37 1004.12 1003.87 1003.65 1003.44 1003.26 1003.13 1003.05 1003.03 1003.07 1003.17 1003.32 1003.50 1003.68 1003.86 1004.02 1004.13 1004.21 1004.24 1004.25 1004.26 1004.27 1004.33 1004.44 1004.62
1008.97 1008.86 1008.74 1008.59 1008.42 1008.20 1007.94 1007.65 1007.31 1006.95 1006.57 1006.19 1005.81 1005.44 1005.08 1004.75 1004.43 1004.13 1003.84 1003.57 1003.30 1003.06 1002.84 1002.66 1002.52 1002.44 1002.41 1002.45 1002.54 1002.67 1002.83 1003.01 1003.18 1003.33 1003.44 1003.52 1003.57 1003.60 1003.63 1003.67 1003.75 1003.87 1004.06
Thickness
5597 5591 5585 5579 5572 5566 5559 5553 5546 5539 5532 5526 5520 5514 5508 5503 5498 5492 5488 5483 5478 5474 5470 5465 5462 5457 5453 5449 5445 5441 5437 5434 5436 5442 5435 5430 5425 5421 5418 5414 5412 5410 5409
5591 5585 5579 5571 5564 5557 5551 5545 5537 5531 5524 5517 5511 5505 5500 5494 5489 5484 5480 5474 5470 5466 5461 5457 5453 5448 5443 5439 5434 5430 5426 5422 5420 5424 5422 5415 5410 5404 5400 5397 5393 5390 5388
5584 5578 5571 5564 5557 5551 5544 5536 5529 5522 5516 5509 5503 5497 5491 5486 5480 5475 5470 5466 5461 5457 5452 5448 5443 5438 5434 5429 5424 5419 5414 5409 5404 5403 5405 5399 5393 5387 5382 5379 5375 5371 5368
5578 5572 5565 5558 5551 5544 5536 5528 5521 5514 5507 5501 5495 5489 5483 5477 5471 5466 5461 5456 5452 5448 5443 5438 5433 5428 5423 5418 5412 5407 5401 5396 5390 5386 5385 5382 5377 5370 5362 5360 5358 5354 5350
5572 5566 5559 5551 5543 5535 5527 5519 5512 5505 5499 5493 5486 5480 5474 5468 5462 5456 5451 5447 5443 5440 5435 5430 5425 5418 5412 5405 5399 5394 5387 5381 5375 5370 5368 5365 5360 5352 5345 5340 5337 5336 5333
5567 5560 5551 5542 5534 5526 5519 5511 5504 5497 5490 5484 5477 5472 5466 5460 5454 5448 5442 5440 5437 5433 5428 5423 5417 5410 5403 5395 5388 5381 5373 5365 5359 5353 5350 5346 5342 5334 5327 5322 5318 5316 5317
5561 5552 5543 5535 5526 5518 5510 5503 5496 5489 5483 5476 5470 5464 5459 5453 5446 5439 5434 5430 5428 5424 5419 5413 5407 5399 5390 5383 5377 5370 5361 5352 5343 5336 5333 5329 5324 5318 5311 5308 5303 5300 5299
5553 5544 5535 5527 5518 5510 5502 5495 5488 5482 5475 5469 5463 5457 5451 5445 5437 5431 5425 5421 5418 5414 5408 5401 5394 5387 5377 5368 5362 5357 5349 5341 5331 5323 5318 5314 5308 5303 5297 5292 5289 5288 5288
5545 5536 5527 5519 5510 5502 5494 5487 5480 5473 5467 5460 5454 5448 5443 5437 5429 5422 5414 5412 5408 5404 5397 5389 5380 5373 5364 5354 5347 5343 5338 5331 5322 5314 5308 5303 5298 5292 5286 5282 5279 5277 5280
5536 5527 5518 5510 5502 5494 5486 5479 5471 5464 5458 5451 5445 5439 5434 5428 5420 5411 5403 5400 5397 5393 5387 5378 5368 5359 5350 5340 5332 5326 5322 5318 5311 5305 5299 5294 5288 5284 5278 5273 5270 5268 5270
5524 5516 5507 5499 5492 5484 5476 5469 5461 5454 5448 5442 5437 5431 5424 5418 5410 5401 5392 5386 5382 5378 5373 5366 5357 5347 5337 5328 5319 5312 5308 5303 5299 5293 5289 5284 5279 5275 5270 5266 5263 5260 5261
5512 5504 5496 5489 5480 5472 5466 5458 5451 5444 5438 5433 5427 5422 5415 5408 5399 5391 5382 5373 5366 5362 5359 5352 5344 5334 5324 5316 5308 5302 5295 5290 5285 5281 5278 5275 5271 5268 5264 5261 5258 5256 5255
5500 5492 5485 5477 5469 5462 5455 5449 5442 5435 5428 5423 5417 5411 5406 5397 5389 5380 5371 5363 5355 5347 5344 5337 5329 5321 5312 5306 5299 5291 5284 5278 5273 5269 5267 5265 5262 5260 5257 5255 5253 5252 5252
5489 5481 5473 5466 5459 5452 5444 5437 5431 5424 5418 5411 5405 5400 5394 5386 5377 5368 5359 5351 5344 5336 5329 5323 5316 5309 5301 5294 5288 5281 5273 5267 5262 5259 5257 5256 5254 5252 5251 5250 5250 5250 5250
5477 5469 5462 5455 5448 5442 5435 5428 5421 5415 5406 5398 5392 5385 5379 5374 5365 5354 5344 5338 5330 5322 5315 5310 5304 5298 5293 5286 5278 5271 5264 5257 5253 5250 5248 5247 5247 5246 5246 5246 5245 5245 5246
5466 5459 5451 5444 5437 5430 5425 5418 5411 5402 5394 5385 5378 5370 5366 5359 5351 5342 5333 5324 5316 5308 5301 5297 5293 5287 5281 5274 5267 5260 5254 5248 5245 5242 5241 5240 5240 5241 5241 5242 5242 5242 5243
5454 5447 5439 5432 5426 5419 5413 5407 5402 5395 5385 5376 5368 5360 5352 5345 5337 5329 5320 5313 5305 5296 5289 5285 5280 5274 5267 5260 5254 5248 5244 5240 5237 5235 5235 5235 5235 5236 5237 5238 5239 5239 5240
5441 5433 5426 5420 5414 5407 5401 5394 5388 5383 5377 5370 5359 5349 5340 5332 5324 5315 5307 5299 5294 5285 5278 5272 5267 5261 5255 5249 5243 5239 5235 5233 5231 5230 5230 5230 5231 5232 5233 5235 5236 5236 5237
5428 5421 5414 5408 5401 5394 5387 5380 5374 5368 5362 5356 5349 5340 5329 5321 5312 5303 5293 5286 5280 5274 5267 5261 5256 5250 5245 5239 5234 5231 5229 5227 5226 5225 5225 5226 5227 5228 5230 5231 5232 5233 5233
5416 5408 5401 5395 5389 5382 5374 5367 5361 5354 5348 5342 5335 5327 5317 5308 5301 5293 5283 5275 5269 5263 5257 5252 5247 5241 5236 5231 5228 5225 5223 5223 5222 5221 5222 5223 5224 5225 5227 5228 5229 5230 5231
5404 5397 5389 5382 5376 5369 5362 5355 5348 5341 5334 5328 5322 5313 5303 5295 5289 5282 5274 5267 5260 5255 5250 5245 5240 5235 5230 5226 5223 5221 5219 5219 5218 5218 5219 5220 5221 5223 5224 5225 5227 5227 5228
5392 5386 5379 5372 5365 5358 5350 5343 5335 5328 5321 5314 5309 5301 5292 5284 5278 5272 5266 5259 5253 5247 5242 5238 5234 5230 5226 5223 5220 5218 5217 5216 5216 5215 5216 5217 5218 5220 5221 5223 5224 5225 5225
5380 5374 5368 5361 5354 5346 5339 5331 5323 5316 5309 5302 5295 5288 5282 5275 5268 5263 5257 5252 5246 5241 5237 5233 5230 5227 5223 5220 5217 5215 5215 5214 5214 5213 5214 5215 5216 5217 5219 5220 5222 5222 5223
5369 5363 5357 5350 5343 5335 5327 5320 5312 5304 5296 5289 5283 5277 5271 5265 5259 5254 5249 5244 5240 5236 5233 5229 5227 5224 5221 5218 5216 5215 5214 5213 5212 5211 5211 5212 5213 5215 5216 5218 5219 5221 5221
5358 5352 5345 5338 5331 5323 5315 5308 5300 5292 5284 5278 5272 5266 5261 5256 5251 5247 5242 5238 5235 5232 5229 5226 5224 5222 5220 5218 5216 5214 5213 5212 5211 5211 5211 5212 5213 5214 5215 5216 5218 5219 5220
5347 5340 5332 5325 5317 5309 5301 5295 5288 5280 5273 5268 5262 5257 5253 5248 5244 5240 5236 5233 5230 5228 5226 5224 5222 5220 5219 5217 5216 5215 5214 5214 5213 5213 5212 5214 5215 5216 5216 5217 5218 5218 5219